Flag for Portugal Weather past 2 weeks in Viseu, Portugal

Now
77 °F

Warm.


Feels Like: 79 °F
Forecast: 53 / 91 °F
Wind: 6 mph from Northwest

Location: Viseu

Current Time: Jul 5, 2015 at 7:56:02 PM

Latest Report: Jul 5, 2015 at 7:00 PM


Visibility: N/A

Pressure: 30.03 "Hg

Humidity: 51%

Dew point: 58 °F

Location of ViseuLocation

Historic Weather in Viseu — Graph

°F

Viseu temperature yesterday

Maximum temperature yesterday: 82 °F (at 4:00 PM)
Minimum temperature yesterday: 55 °F (at 3:00 AM)
Average temperature yesterday: 68 °F

Past Weeks' High & Low Weather Summary

 TemperatureHumidityPressure
High95 °F (Jun 29, 2:00 PM)100% (Jun 25, 5:00 AM)30.21 "Hg (Jun 25, 5:00 AM)
Low50 °F (Jul 2, 6:00 AM)18% (Jul 3, 2:00 PM)29.84 "Hg (Jun 30, 5:00 PM)
Average69 °F62%30.06 "Hg
* Reported Jun 20 6:00 PM — Jul 5 6:00 PM, Viseu, Weather by CustomWeather, © 2015

Note: Actual official high and low records may vary slightly from our data, if they occured in-between our weather recording intervals... More about our weather records

Advertising

Viseu weather history for previous 24 hours

 ConditionsComfort  
Time TempWeatherWind HumidityBarometerVisibility
6:00 PM
Sun, Jul 5
80 °FWarm.6 mph43%30.02 "HgN/A
5:00 PM82 °FPleasantly warm.5 mph40%30.03 "HgN/A
4:00 PM80 °FPleasantly warm.5 mph36%30.04 "HgN/A
3:00 PM80 °FPleasantly warm.5 mph38%30.05 "HgN/A
2:00 PM80 °FWarm.3 mph41%30.07 "HgN/A
1:00 PM75 °FMild.3 mph48%30.09 "HgN/A
12:00 PM71 °FMild.3 mph55%30.11 "HgN/A
11:00 AM70 °FMild.2 mph59%30.11 "HgN/A
10:00 AM66 °FMild.2 mph69%30.12 "HgN/A
9:00 AM61 °FCool.1 mph99%30.14 "HgN/A
8:00 AM58 °FCool.No wind100%30.15 "HgN/A
7:00 AM56 °FCool.1 mph99%30.15 "HgN/A
6:00 AM56 °FCool.No wind99%30.14 "HgN/A
5:00 AM57 °FCool.2 mph99%30.14 "HgN/A
3:00 AM59 °FCool.1 mph98%30.14 "HgN/A
2:00 AM59 °FCool.2 mph97%30.14 "HgN/A
1:00 AM61 °FCool.2 mph92%30.13 "HgN/A
12:00 AM61 °FCool.3 mph91%30.13 "HgN/A
11:00 PM
Sat, Jul 4
63 °FMild.5 mph90%30.13 "HgN/A
10:00 PM64 °FMild.6 mph89%30.11 "HgN/A
9:00 PM67 °FMild.6 mph86%30.09 "HgN/A
8:00 PM70 °FMild.7 mph77%30.08 "HgN/A
7:00 PM74 °FMild.7 mph69%30.06 "HgN/A
Weather by CustomWeather, © 2015

See weather overviewHow to use our weather pages